Flag for France Weather past 2 weeks in Amsterdam Island, French Southern Territories, France

Now
66 °F

Mild.


Feels Like: 66 °F
Forecast: 64 / 66 °F
Wind: 17 mph from Northwest

Location: Martin De Vivies Ile Amsterdam


UV Index: 0 (Low)

Visibility: N/A


Pressure: 30.16 "Hg

Humidity: 91%

Dew point: 63 °F

Location of Amsterdam IslandLocation

Historic Weather in Amsterdam Island

°F

Amsterdam Island temperature yesterday

Maximum temperature yesterday: 66 °F (at 2:00 PM)
Minimum temperature yesterday: 58 °F (at 1:00 AM)
Average temperature yesterday: 61 °F

Past Weeks' High & Low Weather Summary

 TemperatureHumidityPressure
High69 °F (Apr 7, 1:00 PM)98% (Apr 19, 10:00 PM)30.45 "Hg (Apr 19, 10:00 PM)
Low52 °F (Apr 11, 12:00 AM)55% (Apr 10, 11:00 AM)29.72 "Hg (Apr 9, 1:00 AM)
Average60 °F82%30.17 "Hg
* Reported Apr 6 12:00 Noon — Apr 21 12:00 Noon, Amsterdam Island, Weather by CustomWeather, © 2014

Note: Actual official high and low records may vary slightly from our data, if they occured in-between our weather recording intervals... More about our weather records

Advertising

Historic Weather Conditions — Data for Previous 24 hours

 ConditionsComfort  
Time TempWeatherWind HumidityBarometerVisibility
12:00 PM
Apr 21
66 °FMild.17 mph91%30.16 "HgN/A
11:00 AM66 °FMild.17 mph92%30.17 "HgN/A
10:00 AM65 °FMild.17 mph94%30.18 "HgN/A
9:00 AM65 °FMild.17 mph95%30.18 "HgN/A
7:00 AM63 °FMild.18 mph97%30.17 "HgN/A
6:00 AM62 °FMild.17 mph97%30.17 "HgN/A
5:00 AM63 °FMild.18 mph96%30.17 "HgN/A
4:00 AM63 °FMild.20 mph95%30.16 "HgN/A
3:00 AM63 °FMild.17 mph94%30.16 "HgN/A
2:00 AM63 °FMild.18 mph94%30.18 "HgN/A
1:00 AM63 °FMild.18 mph94%30.18 "HgN/A
12:00 AM63 °FMild.18 mph94%30.19 "HgN/A
11:00 PM
Apr 20
63 °FMild.20 mph93%30.20 "HgN/A
10:00 PM63 °FMild.18 mph93%30.22 "HgN/A
9:00 PM62 °FCool.17 mph94%30.22 "HgN/A
8:00 PM62 °FCool.17 mph92%30.22 "HgN/A
7:00 PM62 °FCool.16 mph93%30.23 "HgN/A
6:00 PM62 °FCool.15 mph92%30.24 "HgN/A
5:00 PM63 °FMild.13 mph91%30.24 "HgN/A
4:00 PM64 °FMild.13 mph88%30.26 "HgN/A
3:00 PM64 °FMild.12 mph90%30.27 "HgN/A
2:00 PM66 °FMild.12 mph85%30.27 "HgN/A
1:00 PM66 °FMild.10 mph89%30.29 "HgN/A
Weather by CustomWeather, © 2014

See weather overview